Theta_e
332 328 327 323 320 320 316 314 314 312 312 316 316 316 315 315 312 308 306 307 308 309 309 308 311 312 311 310 311 311 311 310 307 304 299 305 306 306 300 299 297 296 295
332 330 327 324 322 321 319 314 315 311 313 316 316 315 315 314 313 309 306 306 306 308 310 312 313 312 311 311 311 310 310 308 305 300 296 297 301 303 297 296 295 294 294
334 330 326 325 322 321 321 314 314 309 311 313 315 315 316 315 313 313 310 307 307 307 310 311 312 312 311 311 311 310 310 306 301 295 294 295 296 294 297 296 294 294 293
332 331 328 325 323 323 322 316 313 311 309 312 316 316 317 316 313 313 309 307 306 307 310 311 311 311 311 310 310 310 309 306 299 293 292 294 294 294 294 293 292 293 293
331 328 330 328 325 324 324 318 314 314 310 315 316 316 317 315 314 313 309 307 307 309 311 311 311 311 310 310 310 309 308 304 294 292 291 292 293 293 293 292 292 292 292
330 325 331 328 326 324 324 322 316 316 312 316 316 315 316 314 314 314 313 312 309 311 311 311 311 311 310 309 309 309 306 298 292 291 291 291 292 292 291 292 292 291 291
330 330 328 330 328 325 325 324 318 316 313 316 315 315 314 314 315 314 314 314 311 311 311 311 311 310 309 309 309 307 302 294 291 291 290 291 292 291 291 291 291 291 290
329 331 330 331 329 327 326 325 321 317 313 315 315 315 314 315 316 315 315 314 312 313 312 311 310 309 309 309 308 304 297 292 290 290 290 290 291 291 291 291 291 290 290
328 332 333 331 330 328 327 327 323 319 316 314 315 315 314 316 318 316 316 315 315 314 313 312 311 310 309 308 306 300 293 290 290 290 290 289 290 290 290 290 290 290 289
330 329 333 332 331 330 328 328 326 322 318 315 313 315 314 316 317 316 316 316 315 315 314 313 312 309 308 306 302 295 291 290 289 289 289 289 289 288 289 290 290 289 289
329 330 332 333 332 330 329 329 326 323 320 318 315 315 315 316 317 317 316 316 315 315 314 313 311 309 308 304 296 291 290 289 289 288 288 289 289 288 289 289 290 289 288
327 331 332 332 331 330 329 329 326 325 322 319 317 316 316 317 317 316 317 317 316 315 314 313 310 309 306 301 292 290 289 289 288 288 287 288 287 287 288 288 288 288 287
325 329 330 330 330 329 329 328 326 324 322 319 318 317 316 318 317 316 317 317 316 316 314 311 308 307 303 295 291 289 289 288 288 288 287 287 287 286 286 285 285 285 285
323 326 329 329 329 329 329 328 326 325 322 319 318 317 317 318 317 316 317 317 316 315 312 308 307 304 298 292 290 290 289 288 288 287 288 287 287 287 286 286 285 284 283
324 323 324 327 327 328 328 327 326 324 322 319 318 317 317 317 316 316 316 316 315 312 308 307 304 301 294 291 289 288 287 288 287 288 288 287 287 287 286 286 285 284 283
324 323 322 322 325 326 326 326 325 324 322 320 318 317 317 317 316 316 315 315 312 309 307 305 301 296 292 290 287 287 286 287 287 288 287 287 287 286 286 286 285 284 282
324 323 322 321 322 323 324 325 324 323 321 320 318 317 317 316 316 315 314 312 309 307 305 302 297 294 291 290 287 286 286 286 287 287 287 287 286 286 286 285 284 283 282
324 323 322 321 321 321 322 322 323 322 321 319 317 317 317 316 314 313 311 308 307 305 303 299 294 292 290 289 287 286 286 287 287 287 287 286 286 286 285 284 284 283 281
324 323 322 321 320 320 320 320 320 320 319 318 317 316 316 315 312 310 309 306 304 302 297 294 292 291 290 288 286 285 285 286 287 287 287 286 285 285 284 284 283 281 281
323 323 321 320 320 319 318 319 319 318 317 316 316 315 314 312 310 308 306 305 303 299 294 293 291 290 289 288 286 285 284 284 285 286 286 284 284 284 283 283 281 281 281
323 322 320 320 318 317 316 316 316 315 315 314 313 313 311 310 308 305 304 301 298 295 293 292 290 289 288 287 286 285 284 284 283 282 282 283 283 283 282 281 281 280 280
321 319 318 317 316 316 315 314 314 313 313 312 311 310 309 306 304 302 300 297 295 293 292 291 290 288 287 287 287 286 286 285 283 282 282 282 282 280 281 280 280 279 279
319 318 317 316 315 314 314 313 312 312 311 310 309 308 304 302 301 299 298 295 293 292 291 290 289 288 288 287 286 286 286 285 283 281 281 280 280 281 280 279 279 279 279
318 317 316 315 314 313 312 312 311 310 309 309 307 304 301 298 298 297 295 293 292 291 290 289 289 288 288 287 286 286 286 285 284 281 280 279 281 280 280 279 279 279 278
315 316 315 314 313 312 311 310 310 309 307 306 304 300 298 297 296 295 293 291 291 290 290 289 289 288 288 287 287 287 286 285 283 280 280 280 281 280 279 279 279 279 278
314 314 315 313 313 312 311 309 309 307 306 304 301 299 297 296 295 293 291 290 290 290 289 289 289 288 288 287 287 287 286 282 280 280 280 280 280 279 279 279 278 278 278
Wind_Speed
9 20 33 31 30 25 26 29 26 28 29 28 26 26 21 15 12 12 14 13 13 10 6 6 6 4 2 3 6 8 9 13 16 17 11 4 8 4 5 6 8 12 15
24 22 36 36 34 31 27 28 27 30 28 28 25 26 21 16 12 11 13 14 12 10 8 6 5 5 5 5 7 11 10 14 16 17 8 2 7 7 1 4 9 13 14
18 29 38 41 40 36 30 28 28 29 28 28 24 25 21 17 17 14 14 14 12 13 11 10 9 8 8 7 7 11 12 14 13 14 9 2 3 12 6 6 10 10 11
35 38 35 45 44 37 30 28 27 27 27 28 26 29 29 24 22 16 15 15 15 15 12 11 11 8 7 7 7 10 13 16 15 9 3 2 6 5 7 7 9 7 9
48 40 45 46 45 39 34 28 26 26 28 30 29 28 28 21 20 15 16 15 16 15 12 12 10 8 6 7 8 10 13 16 14 11 5 2 5 7 7 10 14 10 6
42 37 44 40 42 36 32 28 27 25 31 30 31 29 26 23 21 19 17 16 18 16 15 13 11 8 8 8 10 12 14 16 13 8 6 2 4 7 5 8 10 12 11
39 44 41 38 42 42 35 30 29 28 34 33 32 30 24 23 23 21 18 18 19 18 16 14 12 8 9 9 9 13 14 14 13 8 4 1 2 6 6 7 9 13 12
33 46 40 50 44 43 37 34 33 31 35 36 32 29 25 25 25 24 19 18 19 17 16 14 10 10 8 10 10 12 14 13 10 8 6 1 3 6 4 6 9 13 15
2 28 45 48 49 49 43 38 35 34 34 34 35 31 28 29 25 26 20 18 20 19 17 15 11 11 9 10 12 11 11 11 8 7 7 4 5 6 5 6 7 10 13
7 6 34 49 51 47 42 37 35 36 36 35 37 33 30 28 22 22 23 22 25 22 19 17 14 12 10 10 11 12 11 9 7 6 5 5 6 4 1 3 7 9 10
8 4 21 45 47 44 44 36 38 37 36 35 35 34 30 30 25 25 26 28 29 26 22 20 15 14 11 10 9 11 9 8 7 5 5 4 6 4 6 6 10 12 12
8 3 18 35 46 45 42 36 38 38 37 36 34 32 31 32 32 30 31 31 32 28 25 20 18 14 12 10 9 9 9 7 6 6 5 6 8 8 8 11 13 14 15
14 11 17 35 38 35 39 41 40 38 37 36 35 30 34 35 36 35 34 33 31 28 23 20 18 13 11 10 10 7 6 6 6 6 7 8 8 8 12 11 10 12 13
18 21 21 25 25 32 36 36 37 35 34 36 35 32 37 36 37 35 34 33 30 25 22 20 16 12 12 10 9 7 6 4 6 8 8 9 11 13 14 14 11 12 16
24 22 24 26 21 32 34 34 34 32 33 35 33 36 37 37 37 36 34 31 27 24 22 18 15 14 12 9 8 8 7 6 4 5 7 9 11 13 15 16 17 18 19
30 25 24 26 30 27 30 30 31 31 32 34 37 38 38 38 37 35 32 29 26 24 21 17 16 14 11 9 7 7 8 8 5 7 10 9 9 12 15 19 21 20 21
31 28 26 26 30 30 29 29 31 31 35 38 40 40 40 38 36 33 32 30 27 24 20 18 17 13 11 9 8 7 7 7 6 7 9 11 12 14 16 19 19 20 17
33 31 29 28 30 31 31 31 32 36 38 41 41 41 40 36 33 33 31 29 26 23 20 18 16 13 11 9 7 6 6 5 4 6 9 10 14 16 19 21 22 22 17
36 33 31 30 30 31 33 33 33 36 38 40 40 40 38 35 33 32 31 29 26 23 20 18 16 13 11 10 8 6 7 7 8 11 13 15 15 19 20 21 23 21 16
33 35 33 30 28 28 31 35 34 35 37 39 39 38 37 33 33 31 31 29 25 21 19 18 16 14 11 10 8 7 7 8 10 12 16 15 16 18 21 23 22 17 16
28 30 29 29 28 26 29 33 33 34 37 38 38 36 34 32 30 30 29 26 24 22 19 18 16 14 11 9 6 4 5 7 8 10 12 14 15 18 22 20 14 13 12
18 21 24 24 24 25 28 30 33 35 37 37 36 34 30 28 29 30 28 25 23 22 20 19 16 13 9 6 5 6 7 5 5 7 10 11 14 16 12 13 12 11 10
10 15 19 20 22 24 27 29 33 36 37 37 36 31 28 30 31 30 28 27 25 23 22 20 17 13 9 7 7 8 8 7 10 13 12 13 13 10 10 12 10 12 13
11 15 18 18 19 23 25 28 32 36 37 35 33 31 33 33 30 28 27 27 25 24 21 18 14 11 12 12 11 11 11 11 17 18 15 9 6 9 11 12 10 12 14
10 18 18 17 18 22 24 27 31 36 35 34 32 35 36 34 31 29 27 26 23 20 19 16 17 19 17 15 14 14 14 16 18 16 10 6 6 8 10 9 11 13 15
20 21 18 18 18 23 23 29 31 36 36 35 35 38 38 36 33 33 31 27 21 20 19 19 19 18 16 16 15 14 16 17 14 9 4 5 7 10 9 10 11 15 17
Wind_Direction
220 199 190 193 193 198 195 192 187 181 166 166 175 168 180 195 196 178 181 177 177 185 174 181 204 231 322 13 19 11 5 350 348 349 49 74 179 172 69 44 8 351 353
197 206 190 194 198 196 200 196 193 183 174 174 182 177 184 191 208 183 184 184 183 181 180 197 237 262 300 340 356 3 6 356 347 350 6 154 215 245 283 354 10 10 1
178 198 196 196 195 194 197 201 197 189 179 180 177 175 185 196 192 198 199 188 183 186 201 214 219 244 287 321 345 343 353 356 353 342 353 351 272 313 223 299 331 350 358
176 186 204 199 197 196 198 201 200 192 183 181 174 182 190 196 199 202 199 191 187 202 214 222 234 247 273 301 326 339 346 348 345 343 313 257 279 307 307 319 346 335 2
168 176 204 204 202 197 196 198 200 194 181 179 184 192 198 207 199 205 202 194 195 210 220 228 241 255 262 282 313 340 340 343 341 339 334 275 230 262 292 313 337 346 8
178 182 194 202 198 199 195 197 199 193 186 183 196 199 204 200 199 200 200 198 203 213 225 237 247 259 265 282 314 331 338 337 340 338 335 332 359 335 340 326 331 340 353
193 185 194 196 201 198 195 200 198 193 190 187 200 204 205 198 203 206 209 208 210 218 230 243 250 254 257 291 309 321 331 335 335 348 9 210 320 316 315 320 336 336 344
206 200 199 196 198 201 198 203 201 194 194 191 199 206 204 200 212 213 215 224 220 222 230 242 247 249 271 293 304 313 326 330 338 340 4 332 300 318 317 338 341 339 336
161 193 197 197 201 202 200 201 203 201 199 196 199 205 198 201 215 212 219 225 221 224 233 240 250 265 271 286 298 307 321 327 329 327 335 318 319 315 289 310 324 337 336
232 172 199 192 202 205 200 204 208 209 203 200 204 205 197 202 210 212 213 215 217 229 239 241 255 254 266 278 290 307 315 320 316 313 318 329 335 344 15 352 304 302 321
204 120 171 194 200 204 200 202 207 210 208 208 204 206 201 201 208 210 213 215 218 225 232 240 249 252 267 276 283 293 307 312 308 307 311 305 311 290 273 287 284 288 294
176 105 181 191 194 202 200 207 208 210 214 213 207 207 205 205 210 212 215 217 217 222 229 239 244 250 267 280 285 290 300 301 300 311 304 287 293 303 301 299 296 291 289
170 157 180 180 189 203 206 204 207 209 212 211 207 209 206 211 211 215 215 214 218 227 232 238 236 248 265 275 283 283 288 294 303 325 323 304 330 328 325 325 317 312 311
189 188 176 191 201 209 211 206 207 211 211 210 207 210 207 207 213 214 213 215 221 229 232 227 232 245 257 268 272 284 293 294 295 318 337 332 341 336 333 337 346 342 336
198 202 201 197 191 200 203 208 207 206 211 207 208 208 206 212 214 215 216 218 222 227 223 223 227 242 256 262 259 270 277 271 289 305 307 311 318 316 314 328 335 336 338
199 205 209 206 206 197 192 204 206 199 209 207 203 204 206 209 212 214 216 218 223 220 218 220 231 243 249 239 238 252 254 259 257 265 287 291 289 294 309 326 332 329 328
201 207 212 206 205 207 211 205 199 197 201 207 202 203 207 210 211 220 216 220 219 214 214 221 235 240 245 243 239 250 247 251 257 292 310 299 297 299 304 312 317 322 329
202 209 208 204 205 203 203 203 200 200 204 202 202 205 210 212 215 217 221 215 211 211 216 224 234 234 238 232 241 244 236 214 238 275 281 286 295 293 297 309 318 322 320
209 210 213 208 205 206 204 201 198 199 200 203 204 207 212 213 221 218 213 209 207 209 214 224 233 231 229 232 238 238 227 222 228 255 266 279 285 292 300 308 314 319 321
211 203 202 203 206 207 207 208 206 204 208 211 210 213 213 215 219 218 209 204 205 211 211 219 229 232 232 238 243 238 243 256 253 264 272 276 286 293 303 316 323 325 331
192 195 198 203 205 206 206 206 210 208 207 208 210 211 212 217 219 208 203 202 203 206 209 218 225 232 239 246 248 260 282 282 274 266 272 282 294 307 313 316 325 334 340
176 186 194 196 200 205 206 204 202 201 204 206 209 210 216 213 205 201 199 202 204 204 210 216 222 231 229 220 260 285 307 324 327 312 301 304 303 304 313 333 343 349 342
207 191 204 197 202 207 208 204 200 202 205 208 212 216 213 205 198 198 201 200 205 210 212 218 223 226 221 233 257 276 292 306 317 329 316 311 313 315 335 347 349 341 341
220 208 204 203 206 208 209 211 206 208 210 213 212 212 201 199 201 204 205 205 207 211 215 216 212 221 224 223 245 267 290 306 316 323 320 317 316 344 346 343 343 346 336
239 225 219 217 216 213 211 211 212 211 211 213 212 202 200 204 201 202 204 209 214 222 219 213 206 216 219 231 256 274 285 295 305 308 308 297 312 347 333 331 337 328 330
309 226 223 221 220 216 215 212 218 215 214 212 207 204 205 205 205 200 196 200 211 209 212 219 226 224 236 241 251 263 275 285 293 295 289 319 346 327 331 330 320 318 327